Location: Newark
(48.3453°N, 0.5589°E)
Time: 02:54:34
(UTC+00:00)

Vanguard 3 - Visible Passes

Search period start: 08 December 2019 00:00
Search period end: 18 December 2019 00:00
Orbit: 508 x 3263 km, 33.3° (Epoch: 07 December)

Date Brightness Start Highest point End Pass type
(mag) Time Alt. Az. Time Alt. Az. Time Alt. Az.
08 Dec 10.9 06:33:19 10° SSE 06:36:23 12° SE 06:39:56 10° ESE visible
10 Dec 10.7 06:16:45 10° SSE 06:19:37 12° SE 06:22:58 10° ESE visible
12 Dec 10.5 06:00:24 10° SSE 06:02:59 12° SE 06:05:59 10° ESE visible
13 Dec 10.1 06:54:22 10° SSW 06:59:37 22° SSE 07:07:15 10° ESE visible
14 Dec 10.3 05:44:13 10° SSE 05:46:27 12° SE 05:49:01 10° ESE visible
15 Dec 9.9 06:38:25 10° SSW 06:43:10 21° SSE 06:49:55 10° ESE visible
16 Dec 10.1 05:28:10 10° SSE 05:30:00 11° SE 05:32:05 10° SE visible
17 Dec 9.6 06:22:34 10° SSW 06:26:47 20° SSE 06:32:41 10° ESE visible
